Find Starlink 1392

NORAD ID: 45677 Int'l Des: 2020-035 Owner: SPXS Country: US Constellation: starlink operational
LEOCIRCULAR

リアルタイム位置

3D地球を読み込み中...

Starlink 1392について

説明を読み込み中...

次回通過

Passes for default location (London). Set your location on the main map for personalized predictions.

高度履歴

Loading altitude history...

軌道要素

1 45677U 20035W 26127.05377172 .00036774 00000-0 10555-2 0 9994
2 45677 53.1535 152.9908 0003306 45.9708 314.1567 15.35528258327702
Epoch: May 7, 2026 • Age: 9 hours

現在のステータス

高度 458.1 km
速度 7.64 km/s
衛星直下点 3.90°N, 128.52°E
打ち上げ日 Jun 4, 2020
運用期間 5.9 years
タイプ internet

技術仕様

分類 Payload
質量 260.00 kg
乾燥質量 248.00 kg
総質量 260.00 kg
長さ 0.20 m
直径 2.80 m
スパン 9.00 m
形状 Box + pan
製造者 SPXS
バスタイプ Starlink
フェーズステータス In Orbit
所有者/国 SPXS/US

Most Searched